Eveleth, MN

10:42 AM CST on February 27, 2017 (GMT -0600)
Eveleth-Virginia Municipal

Weather History for KEVM - January, 2013

Change the Weather History Date:

Monday, January 7, 2013

  Actual Average Record
Temperature  
Mean Temperature 25 °F -  
Max Temperature 35 °F 16 °F 46 °F (2003)
Min Temperature 15 °F 0 °F -22 °F (1999)
Degree Days  
Heating Degree Days 40    
Moisture  
Dew Point 20 °F    
Average Humidity 76    
Maximum Humidity 86    
Minimum Humidity 64    
Precipitation  
Precipitation 0.00 in - - ()
Sea Level Pressure  
Sea Level Pressure 29.74 in    
Wind  
Wind Speed 10 mph (WSW)    
Max Wind Speed 23 mph    
Max Gust Speed 30 mph    
Visibility 10 miles    
Events      
Averages and records for this station are not official NWS values.
T = Trace of Precipitation, MM = Missing Value Source: NWS Daily Summary

Daily Weather History Graph

Daily Weather History Graph

Search for Another Location

Airport or City:

Trip Planner

Search our weather history database for the weather conditions in past years. The results will help you decide how hot, cold, wet, or windy it might be!

Date:

Astronomy

Jan. 07, 2013 Rise Set
Actual Time 7:56 AM CST 4:36 PM CST
Civil Twilight 7:21 AM CST 5:11 PM CST
Nautical Twilight 6:42 AM CST 5:50 PM CST
Astronomical Twilight 6:05 AM CST 6:27 PM CST
Moon 3:16 AM CST (1/7) 12:51 PM CST (1/7)
Length of Visible Light 9h 50m
Length of Day
8h 40m
Waning Crescent, 22% of the Moon is Illuminated
Jan 7
Waning Crescent
Jan 11
New
Jan 18
First Quarter
Jan 26
Full
Feb 3
Last Quarter

Hourly Weather History & Observations

Time (CST) Temp. Windchill Dew Point Humidity Pressure Visibility Wind Dir Wind Speed Gust Speed Precip Events Conditions
12:10 AM 17.6 °F 9.3 °F 10.4 °F 73% 29.87 in 10.0 mi South 5.8 mph - N/A   Clear
12:29 AM 17.6 °F 6.4 °F 10.4 °F 73% 29.87 in 10.0 mi South 9.2 mph - N/A   Clear
12:49 AM 17.6 °F 6.4 °F 10.4 °F 73% 29.85 in 10.0 mi South 9.2 mph - N/A   Clear
1:09 AM 17.6 °F 6.4 °F 12.2 °F 79% 29.83 in 10.0 mi South 9.2 mph - N/A   Clear
1:29 AM 17.6 °F 7.3 °F 12.2 °F 79% 29.80 in 10.0 mi SSE 8.1 mph - N/A   Clear
1:50 AM 17.6 °F 5.7 °F 12.2 °F 79% 29.77 in 10.0 mi SSE 10.4 mph 17.3 mph N/A   Clear
2:29 AM 17.6 °F 5.7 °F 12.2 °F 79% 29.77 in 10.0 mi South 10.4 mph - N/A   Clear
2:49 AM 17.6 °F 7.3 °F 12.2 °F 79% 29.76 in 10.0 mi South 8.1 mph - N/A   Clear
3:09 AM 17.6 °F 8.2 °F 12.2 °F 79% 29.76 in 10.0 mi SSW 6.9 mph - N/A   Clear
3:30 AM 15.8 °F 7.2 °F 10.4 °F 79% 29.75 in 10.0 mi SSW 5.8 mph - N/A   Clear
3:49 AM 15.8 °F 8.6 °F 12.2 °F 86% 29.73 in 10.0 mi South 4.6 mph - N/A   Clear
4:09 AM 15.8 °F 8.6 °F 12.2 °F 86% 29.73 in 10.0 mi SSW 4.6 mph - N/A   Clear
4:30 AM 17.6 °F 8.2 °F 12.2 °F 79% 29.71 in 10.0 mi SSW 6.9 mph - N/A   Clear
4:49 AM 17.6 °F 5.0 °F 14.0 °F 86% 29.71 in 10.0 mi SSW 11.5 mph - N/A   Clear
5:09 AM 17.6 °F 6.4 °F 14.0 °F 86% 29.71 in 10.0 mi SSW 9.2 mph - N/A   Clear
5:30 AM 17.6 °F 6.4 °F 14.0 °F 86% 29.70 in 10.0 mi SSW 9.2 mph - N/A   Clear
5:49 AM 17.6 °F 6.4 °F 14.0 °F 86% 29.70 in 10.0 mi SSW 9.2 mph - N/A   Clear
6:09 AM 17.6 °F 5.7 °F 14.0 °F 86% 29.68 in 10.0 mi SSW 10.4 mph - N/A   Clear
6:30 AM 17.6 °F 5.7 °F 14.0 °F 86% 29.67 in 10.0 mi SSW 10.4 mph 17.3 mph N/A   Scattered Clouds
6:49 AM 19.4 °F 7.2 °F 15.8 °F 86% 29.67 in 10.0 mi SW 11.5 mph 17.3 mph N/A   Mostly Cloudy
7:09 AM 21.2 °F 11.7 °F 17.6 °F 86% 29.68 in 10.0 mi SW 8.1 mph - N/A   Overcast
7:30 AM 21.2 °F 10.9 °F 17.6 °F 86% 29.69 in 10.0 mi SW 9.2 mph - N/A   Scattered Clouds
7:49 AM 21.2 °F 10.1 °F 17.6 °F 86% 29.68 in 10.0 mi WSW 10.4 mph - N/A   Scattered Clouds
8:30 AM 21.2 °F 11.7 °F 17.6 °F 86% 29.68 in 10.0 mi SW 8.1 mph - N/A   Clear
8:49 AM 21.2 °F 12.6 °F 17.6 °F 86% 29.69 in 10.0 mi SW 6.9 mph - N/A   Clear
9:10 AM 23.0 °F 13.1 °F 19.4 °F 86% 29.69 in 10.0 mi SW 9.2 mph - N/A   Clear
9:29 AM 23.0 °F 12.4 °F 19.4 °F 86% 29.69 in 10.0 mi SW 10.4 mph - N/A   Clear
9:50 AM 23.0 °F 11.7 °F 19.4 °F 86% 29.70 in 10.0 mi SW 11.5 mph - N/A   Clear
10:10 AM 24.8 °F 14.0 °F 19.4 °F 80% 29.70 in 10.0 mi SW 11.5 mph - N/A   Clear
10:29 AM 26.6 °F 17.5 °F 19.4 °F 74% 29.69 in 10.0 mi SW 9.2 mph - N/A   Clear
10:50 AM 28.4 °F 18.5 °F 21.2 °F 74% 29.68 in 10.0 mi SW 11.5 mph - N/A   Clear
11:29 AM 32.0 °F 22.1 °F 24.8 °F 75% 29.67 in 10.0 mi WSW 13.8 mph 19.6 mph N/A   Clear
11:50 AM 32.0 °F 20.5 °F 23.0 °F 69% 29.66 in 10.0 mi WSW 18.4 mph 24.2 mph N/A   Clear
12:09 PM 32.0 °F 22.1 °F 23.0 °F 69% 29.65 in 10.0 mi WSW 13.8 mph 19.6 mph N/A   Clear
12:30 PM 33.8 °F 23.5 °F 23.0 °F 65% 29.65 in 10.0 mi West 16.1 mph 20.7 mph N/A   Clear
1:09 PM 35.6 °F 24.8 °F 24.8 °F 65% 29.65 in 10.0 mi West 19.6 mph 26.5 mph N/A   Clear
1:30 PM 35.6 °F 24.0 °F 24.8 °F 65% 29.66 in 10.0 mi WSW 23.0 mph 29.9 mph N/A   Clear
1:50 PM 35.6 °F 25.5 °F 26.6 °F 70% 29.66 in 10.0 mi West 17.3 mph 28.8 mph N/A   Clear
2:09 PM 35.6 °F 25.2 °F 26.6 °F 70% 29.66 in 10.0 mi WSW 18.4 mph 29.9 mph N/A   Clear
2:29 PM 35.6 °F 25.9 °F 26.6 °F 70% 29.67 in 10.0 mi West 16.1 mph 29.9 mph N/A   Clear
2:50 PM 35.6 °F 26.2 °F 26.6 °F 70% 29.67 in 10.0 mi WSW 15.0 mph 23.0 mph N/A   Clear
3:09 PM 35.6 °F 26.6 °F 26.6 °F 70% 29.68 in 10.0 mi WSW 13.8 mph 24.2 mph N/A   Clear
3:29 PM 35.6 °F 27.5 °F 26.6 °F 70% 29.69 in 10.0 mi WSW 11.5 mph 20.7 mph N/A   Clear
3:50 PM 35.6 °F 26.6 °F 26.6 °F 70% 29.70 in 10.0 mi West 13.8 mph 21.9 mph N/A   Clear
4:09 PM 35.6 °F 28.0 °F 24.8 °F 65% 29.71 in 10.0 mi West 10.4 mph - N/A   Clear
4:29 PM 33.8 °F 24.3 °F 23.0 °F 65% 29.72 in 10.0 mi West 13.8 mph 21.9 mph N/A   Clear
5:09 PM 32.0 °F 23.0 °F 21.2 °F 64% 29.74 in 10.0 mi West 11.5 mph - N/A   Clear
5:30 PM 32.0 °F 24.2 °F 23.0 °F 69% 29.75 in 10.0 mi West 9.2 mph 17.3 mph N/A   Clear
5:49 PM 32.0 °F 23.0 °F 23.0 °F 69% 29.76 in 10.0 mi West 11.5 mph 18.4 mph N/A   Clear
6:09 PM 32.0 °F 23.0 °F 23.0 °F 69% 29.77 in 10.0 mi West 11.5 mph 16.1 mph N/A   Clear
6:30 PM 32.0 °F 22.1 °F 23.0 °F 69% 29.78 in 10.0 mi West 13.8 mph 19.6 mph N/A   Mostly Cloudy
6:49 PM 32.0 °F 23.0 °F 23.0 °F 69% 29.79 in 10.0 mi West 11.5 mph 17.3 mph N/A   Overcast
7:10 PM 32.0 °F 23.6 °F 24.8 °F 75% 29.79 in 10.0 mi West 10.4 mph - N/A   Overcast
7:29 PM 32.0 °F 23.0 °F 24.8 °F 75% 29.80 in 10.0 mi West 11.5 mph 17.3 mph N/A   Overcast
7:49 PM 32.0 °F 23.0 °F 24.8 °F 75% 29.80 in 10.0 mi West 11.5 mph 18.4 mph N/A   Overcast
8:10 PM 32.0 °F 22.1 °F 24.8 °F 75% 29.81 in 10.0 mi West 13.8 mph 20.7 mph N/A   Overcast
8:29 PM 32.0 °F 21.6 °F 24.8 °F 75% 29.82 in 10.0 mi West 15.0 mph 24.2 mph N/A   Overcast
8:49 PM 32.0 °F 21.6 °F 24.8 °F 75% 29.83 in 10.0 mi West 15.0 mph 21.9 mph N/A   Overcast
9:09 PM 32.0 °F 22.1 °F 24.8 °F 75% 29.83 in 10.0 mi WNW 13.8 mph - N/A   Overcast
9:29 PM 32.0 °F 24.2 °F 24.8 °F 75% 29.84 in 10.0 mi West 9.2 mph - N/A   Overcast
9:50 PM 32.0 °F 25.6 °F 23.0 °F 69% 29.84 in 10.0 mi West 6.9 mph - N/A   Overcast
10:09 PM 30.2 °F 23.4 °F 23.0 °F 75% 29.85 in 10.0 mi West 6.9 mph - N/A   Overcast
10:29 PM 30.2 °F 23.4 °F 23.0 °F 75% 29.85 in 10.0 mi West 6.9 mph - N/A   Overcast
10:50 PM 30.2 °F 24.3 °F 23.0 °F 75% 29.85 in 10.0 mi West 5.8 mph - N/A   Overcast
11:09 PM 28.4 °F 23.3 °F 21.2 °F 74% 29.85 in 10.0 mi WSW 4.6 mph - N/A   Mostly Cloudy
11:29 PM 28.4 °F 23.3 °F 21.2 °F 74% 29.86 in 10.0 mi WSW 4.6 mph - N/A   Mostly Cloudy
11:50 PM 26.6 °F 21.2 °F 21.2 °F 80% 29.86 in 10.0 mi West 4.6 mph - N/A   Mostly Cloudy